[[{"header":{"parameterUnit":"m.s-1","parameterCategory":1,"la1":30.2992,"la2":30.254,"lo1":-89.0895,"lo2":-89.0443,"dy":0.0025,"dx":0.0025,"nx":19,"ny":19,"refTime":"2026-03-08T03:00:00:Z","depth":0,"parameterNumber":2,"parameterNumberName":"U-component_of_WINDS"},"data":[0,0,0,-0.2079,-0.2076,-0.192,-0.1919,-0.1733,-0.1732,0,0,0,0,0,0,0,0,0,0,0,-0.2137,-0.2136,-0.2079,-0.2076,-0.192,-0.1919,-0.1734,-0.1732,0,0,0,0,0,0,0,0,0,0,0,-0.2137,-0.2136,-0.2135,-0.2075,-0.192,-0.1919,-0.1734,-0.1846,0,0,0,0,0,0,0,0,0,0,-0.1995,-0.206,-0.2136,-0.2135,-0.2074,-0.192,-0.1919,-0.1851,-0.1839,-0.1811,0,-0.1792,0,-0.176,-0.1721,-0.172,0,0,0,-0.2066,-0.2071,-0.2018,-0.2135,-0.2073,-0.192,-0.1987,-0.1844,-0.183,-0.1795,-0.1789,-0.1782,-0.1756,-0.172,-0.1719,-0.1598,-0.1598,0,0,-0.2074,-0.2114,-0.2028,-0.201,-0.2039,-0.1992,-0.1983,-0.1836,-0.1831,-0.1789,-0.1777,-0.1753,-0.1718,-0.1717,-0.1598,-0.1598,0,0,0,-0.2106,-0.2121,-0.2071,-0.2018,-0.1989,-0.1988,-0.1977,-0.1837,-0.1818,-0.1775,-0.1751,-0.1717,-0.1715,-0.1598,-0.1598,-0.1633,0,0,0,-0.211,-0.2139,-0.2076,-0.2098,-0.1993,-0.1912,-0.1982,-0.1828,-0.181,-0.1752,-0.1717,-0.1714,-0.1598,-0.1598,-0.1632,-0.1642,0,0,0,-0.2143,-0.2142,-0.2124,-0.2101,-0.2036,-0.1913,-0.1886,-0.1823,-0.1796,-0.172,-0.1713,-0.1598,-0.1598,-0.1631,-0.1641,-0.1622,0,0,0,-0.2188,-0.2155,-0.2126,-0.2079,-0.2037,-0.1937,-0.1886,-0.1809,-0.1747,-0.1717,-0.1598,-0.1598,-0.1631,-0.164,-0.1622,-0.1614,-0.1615,0,0,-0.2169,-0.2155,-0.2124,-0.2093,-0.2009,-0.1958,-0.1877,-0.1781,-0.1736,-0.1646,-0.1642,-0.1632,-0.164,-0.1622,-0.1605,-0.1606,0,0,0,-0.2131,-0.211,-0.2079,-0.2025,-0.1953,-0.1892,-0.1805,-0.177,-0.1692,-0.1699,-0.1619,-0.1623,-0.161,-0.1605,-0.1605,-0.1592,-0.1597,-0.1597,-0.1597,-0.2161,-0.2107,-0.2053,-0.1981,-0.1928,-0.184,-0.1791,-0.1728,-0.1687,-0.1669,-0.1642,-0.1638,-0.1634,-0.1634,-0.162,-0.1633,-0.1633,-0.1633,-0.1633,-0.2128,-0.2089,-0.2038,-0.1968,-0.191,-0.1849,-0.1762,-0.1735,-0.1668,-0.1654,-0.164,-0.163,-0.1637,-0.1622,-0.1635,-0.1635,-0.1635,-0.1635,-0.1634,-0.2141,-0.2114,-0.2073,-0.1989,-0.1929,-0.1855,-0.1794,-0.1743,-0.1694,-0.168,-0.1646,-0.1645,-0.1638,-0.1667,-0.1667,-0.1667,-0.1667,-0.1667,-0.1667,-0.2172,-0.2125,-0.2081,-0.2004,-0.1962,-0.19,-0.1811,-0.1767,-0.1705,-0.1672,-0.1671,-0.1632,-0.1648,-0.1653,-0.1667,-0.1667,-0.1667,-0.1667,-0.1667,-0.2158,-0.2154,-0.2087,-0.2046,-0.1949,-0.1893,-0.1829,-0.1744,-0.17,-0.1672,-0.1635,-0.1655,-0.1636,-0.1635,-0.1639,-0.1647,-0.1647,-0.1647,-0.1647,-0.217,-0.2156,-0.2076,-0.2013,-0.1945,-0.1881,-0.1804,-0.1734,-0.166,-0.1629,-0.162,-0.162,-0.1622,-0.1601,-0.1601,-0.1604,-0.1604,-0.1603,-0.1603,-0.2159,-0.2136,-0.2083,-0.2013,-0.1934,-0.1867,-0.1793,-0.172,-0.1634,-0.16,-0.1603,-0.1605,-0.1605,-0.1609,-0.1575,-0.1576,-0.158,0,0]},{"header":{"parameterUnit":"m.s-1","parameterCategory":1,"la1":30.2992,"la2":30.254,"lo1":-89.0895,"lo2":-89.0443,"dy":0.0025,"dx":0.0025,"nx":19,"ny":19,"refTime":"2026-03-08T03:00:00:Z","depth":0,"parameterNumber":3,"parameterNumberName":"V-component_of_WINDS"},"data":[0,0,0,0.5966,0.5966,0.5959,0.5959,0.5951,0.5951,0,0,0,0,0,0,0,0,0,0,0,0.5969,0.5969,0.5966,0.5966,0.5959,0.5959,0.5951,0.5951,0,0,0,0,0,0,0,0,0,0,0,0.5969,0.5969,0.5969,0.5966,0.5959,0.5959,0.5951,0.5956,0,0,0,0,0,0,0,0,0,0,0.5962,0.5966,0.5969,0.5969,0.5966,0.5959,0.5959,0.5956,0.5955,0.5954,0,0.5954,0,0.5952,0.595,0.595,0,0,0,0.5965,0.5966,0.5964,0.5969,0.5966,0.5959,0.5962,0.5955,0.5955,0.5954,0.5954,0.5953,0.5952,0.595,0.595,0.5948,0.5948,0,0,0.5965,0.5968,0.5964,0.5963,0.5965,0.5962,0.5961,0.5955,0.5955,0.5954,0.5953,0.5952,0.595,0.595,0.5948,0.5948,0,0,0,0.5967,0.5968,0.5966,0.5964,0.5962,0.5962,0.5961,0.5955,0.5955,0.5953,0.5952,0.595,0.595,0.5948,0.5948,0.5951,0,0,0,0.5967,0.5969,0.5966,0.5967,0.5962,0.5959,0.5962,0.5955,0.5954,0.5952,0.595,0.595,0.5948,0.5948,0.5951,0.5953,0,0,0,0.5969,0.5969,0.5968,0.5967,0.5964,0.5959,0.5957,0.5955,0.5953,0.595,0.595,0.5948,0.5948,0.5951,0.5952,0.5953,0,0,0,0.5971,0.5971,0.5969,0.5968,0.5964,0.5961,0.5957,0.5955,0.5952,0.595,0.5948,0.5948,0.5951,0.5952,0.5953,0.5954,0.5955,0,0,0.5973,0.5972,0.5971,0.5968,0.5966,0.5962,0.596,0.5956,0.5953,0.595,0.595,0.5951,0.5952,0.5953,0.5958,0.5958,0,0,0,0.5972,0.5972,0.5971,0.5969,0.5966,0.5963,0.5959,0.5957,0.5954,0.5952,0.5951,0.5952,0.5952,0.5953,0.5953,0.5954,0.5948,0.5948,0.5948,0.5977,0.5974,0.5974,0.597,0.5968,0.5964,0.5962,0.5959,0.5956,0.5956,0.5955,0.5958,0.5959,0.5959,0.596,0.5955,0.5955,0.5956,0.5956,0.5979,0.5978,0.5975,0.5973,0.597,0.5969,0.5965,0.5963,0.5961,0.5959,0.5959,0.5957,0.596,0.596,0.5956,0.5956,0.5956,0.5956,0.5956,0.5982,0.5981,0.598,0.5977,0.5975,0.5971,0.597,0.5967,0.5964,0.5965,0.5963,0.5963,0.5963,0.5964,0.5964,0.5964,0.5964,0.5964,0.5964,0.5986,0.5984,0.5983,0.598,0.5979,0.5977,0.5973,0.5972,0.5969,0.5967,0.5967,0.5965,0.5961,0.596,0.5964,0.5964,0.5964,0.5964,0.5964,0.5989,0.5988,0.5987,0.5986,0.5982,0.5981,0.5978,0.5975,0.5974,0.5973,0.5971,0.5968,0.5967,0.5966,0.5966,0.5971,0.5971,0.5971,0.5971,0.5992,0.5991,0.5989,0.5988,0.5986,0.5983,0.5982,0.5979,0.5976,0.5975,0.5974,0.5973,0.5972,0.5971,0.597,0.597,0.5976,0.5976,0.5976,0.5993,0.5992,0.5992,0.5989,0.5987,0.5985,0.5984,0.5982,0.5978,0.5976,0.5974,0.5974,0.5972,0.5971,0.5969,0.5968,0.5967,0,0]}]]